GW4132 Weather Reports


Display with metric or nautical units.
time (UTC)temp
F
wind
direction
speed
MPH
gust
MPH
rain 1hr
in
rain 24hr
in
rain mn
in
humidity
%
barometer
mb
20260505220034 68 107 2.0 4.0 0.00 0.00 0.00 53 1019.6
20260505214551 69 27 2.0 6.0 0.00 0.00 0.00 54 1019.6
20260505213051 69 37 2.0 6.0 0.00 0.00 0.00 52 1019.8
20260505211532 70 93 2.0 6.0 0.00 0.00 0.00 53 1019.8
20260505210046 69 188 2.0 6.0 0.00 0.00 0.00 55 1019.8
20260505204558 69 31 2.0 5.0 0.00 0.00 0.00 53 1019.8
20260505203042 69 161 1.0 4.0 0.00 0.00 0.00 53 1019.9
20260505201541 69 104 1.0 4.0 0.00 0.00 0.00 50 1019.7
20260505200054 69 165 1.0 4.0 0.00 0.00 0.00 51 1019.6
20260505194556 68 139 2.0 4.0 0.00 0.00 0.00 52 1019.6
20260505193047 67 168 2.0 6.0 0.00 0.00 0.00 53 1019.6
20260505191548 66 205 2.0 4.0 0.00 0.00 0.00 55 1019.6
20260505190115 66 136 1.0 6.0 0.00 0.00 0.00 55 1019.6
20260505184557 65 161 2.0 4.0 0.00 0.00 0.00 60 1019.5
20260505183052 63 149 1.0 4.0 0.00 0.00 0.00 61 1019.5
20260505181606 62 168 1.0 4.0 0.00 0.00 0.00 64 1019.4
20260505180103 61 119 1.0 5.0 0.00 0.00 0.00 66 1019.5
20260505174545 61 108 1.0 4.0 0.00 0.00 0.00 67 1019.5
20260505173048 60 179 1.0 5.0 0.00 0.00 0.00 68 1019.5
20260505171558 58 168 1.0 4.0 0.00 0.00 0.00 69 1019.3
20260505170044 58 136 1.0 3.0 0.00 0.00 0.00 69 1019.3
20260505164547 57 166 1.0 3.0 0.00 0.00 0.00 71 1019.2
20260505163509 57 128 1.0 3.0 0.00 0.00 0.00 73 1019.3
20260505161552 56 193 0.0 3.0 0.00 0.00 0.00 76 1019.1
20260505151602 44 352 0.0 1.0 0.00 0.00 0.00 94 1019.0
20260505150312 44 352 0.0 0.0 0.00 0.00 0.00 94 1018.9
20260505124607 43 352 0.0 1.0 0.00 0.00 0.00 90 1018.1
20260505123044 43 352 0.0 2.0 0.00 0.00 0.00 90 1018.0
20260505121542 43 352 0.0 2.0 0.00 0.00 0.00 89 1017.9
20260505114548 43 352 0.0 1.0 0.00 0.00 0.00 89 1017.9
20260505113050 44 352 0.0 0.0 0.00 0.00 0.00 89 1017.9
20260505111603 44 352 0.0 2.0 0.00 0.00 0.00 89 1017.8
20260505110312 44 352 0.0 1.0 0.00 0.00 0.00 89 1017.9
20260505101547 44 352 0.0 1.0 0.00 0.00 0.00 88 1017.9
20260505100043 45 352 0.0 1.0 0.00 0.00 0.00 87 1017.9
20260505094543 45 352 1.0 2.0 0.00 0.00 0.00 86 1017.8
20260505093042 45 352 0.0 1.0 0.00 0.00 0.00 86 1017.8
20260505091554 45 352 0.0 1.0 0.00 0.00 0.00 85 1017.8
20260505090054 46 352 0.0 1.0 0.00 0.00 0.00 83 1017.8
20260505084605 46 352 0.0 1.0 0.00 0.00 0.00 82 1017.7
20260505083117 47 352 0.0 1.0 0.00 0.00 0.00 80 1017.7
20260505081553 46 352 0.0 2.0 0.00 0.00 0.00 81 1017.8
20260505080025 47 352 0.0 1.0 0.00 0.00 0.00 81 1017.8
20260505074550 47 352 0.0 1.0 0.00 0.00 0.00 80 1017.7
20260505073055 47 352 0.0 2.0 0.00 0.00 0.00 79 1017.7
20260505071546 47 352 0.0 2.0 0.00 0.00 0.00 80 1017.7
20260505070050 48 350 0.0 2.0 0.00 0.00 0.00 78 1017.7
20260505064629 48 350 0.0 1.0 0.00 0.00 0.00 77 1017.5
20260505063048 49 350 0.0 1.0 0.00 0.00 0.00 76 1017.4
20260505061549 50 350 0.0 1.0 0.00 0.00 0.00 75 1017.3
20260505060325 50 350 0.0 1.0 0.00 0.00 0.00 74 1017.4
20260505054610 51 350 0.0 2.0 0.00 0.00 0.00 72 1017.3
20260505053043 53 317 0.0 2.0 0.00 0.00 0.00 68 1017.4
20260505051615 54 317 0.0 2.0 0.00 0.00 0.00 66 1017.3
20260505041546 54 24 0.0 2.0 0.00 0.00 0.00 71 1017.2
20260505040101 54 34 0.0 2.0 0.00 0.00 0.00 70 1017.0
20260505034611 56 338 0.0 2.0 0.00 0.00 0.00 69 1016.5
20260505033054 56 311 1.0 3.0 0.00 0.00 0.00 67 1016.6
20260505031546 57 313 1.0 2.0 0.00 0.00 0.00 66 1016.3
20260505030049 58 360 0.0 1.0 0.00 0.00 0.00 65 1016.2
20260505024607 59 360 1.0 2.0 0.00 0.00 0.00 62 1016.2
20260505023043 59 360 0.0 3.0 0.00 0.00 0.00 61 1016.2
20260505021536 60 32 0.0 2.0 0.00 0.00 0.00 60 1016.2
20260505020054 61 17 1.0 7.0 0.00 0.00 0.00 58 1016.1
20260505014544 61 136 0.0 2.0 0.00 0.00 0.00 56 1015.9
20260505013041 62 142 1.0 6.0 0.00 0.00 0.00 55 1015.9
20260505011548 62 75 0.0 5.0 0.00 0.00 0.00 54 1016.2
20260505010106 63 53 0.0 5.0 0.00 0.00 0.00 52 1016.1
20260505004601 64 14 2.0 6.0 0.00 0.00 0.00 50 1016.2
20260505003045 65 43 0.0 6.0 0.00 0.00 0.00 49 1016.2
20260505001549 67 70 2.0 7.0 0.00 0.00 0.00 46 1016.3
20260505000047 68 17 2.0 7.0 0.00 0.00 0.00 45 1016.2
20260504234545 69 24 2.0 5.0 0.00 0.00 0.00 44 1016.2
20260504233050 69 59 3.0 6.0 0.00 0.00 0.00 43 1016.2
20260504231618 69 71 2.0 6.0 0.00 0.00 0.00 44 1016.5
20260504230049 70 27 3.0 6.0 0.00 0.00 0.00 43 1016.5
20260504224553 70 46 2.0 5.0 0.00 0.00 0.00 42 1016.5
20260504223048 70 126 2.0 4.0 0.00 0.00 0.00 41 1016.7
20260504221631 70 65 1.0 7.0 0.00 0.00 0.00 43 1016.8